H1 CPF 1 NER 2013 1 11 9 5111 glonass114 H2 0806703 9114 33468 2013 1 11 0 0 0 2013 1 14 23 45 0 900 1 1 0 0 0 H9 10 0 56303 0.00000 0 17600451.024 -17392698.017 -6241162.155 10 0 56303 900.00000 0 16943879.232 -16690723.451 -9248842.926 10 0 56303 1800.00000 0 16146187.618 -15640730.107 -12077079.411 10 0 56303 2700.00000 0 15265106.915 -14243837.657 -14670994.691 10 0 56303 3600.00000 0 14358632.974 -12514014.831 -16980251.335 10 0 56303 4500.00000 0 13482483.543 -10477737.366 -18960025.444 10 0 56303 5400.00000 0 12687668.321 -8173130.982 -20571874.225 10 0 56303 6300.00000 0 12018274.368 -5648633.682 -21784480.697 10 0 56303 7200.00000 0 11509559.800 -2961231.897 -22574261.356 10 0 56303 8100.00000 0 11186435.793 -174342.512 -22925825.356 10 0 56303 9000.00000 0 11062400.612 2644572.564 -22832276.437 10 0 56303 9900.00000 0 11138970.645 5426561.341 -22295351.649 10 0 56303 10800.00000 0 11405632.565 8103801.294 -21325393.933 10 0 56303 11700.00000 0 11840319.131 10612175.699 -19941158.545 10 0 56303 12600.00000 0 12410389.068 12893700.417 -18169456.431 10 0 56303 13500.00000 0 13074070.395 14898700.834 -16044640.658 10 0 56303 14400.00000 0 13782306.840 16587648.738 -13607945.068 10 0 56303 15300.00000 0 14480929.883 17932582.757 -10906687.304 10 0 56303 16200.00000 0 15113064.820 18918053.327 -7993351.188 10 0 56303 17100.00000 0 15621669.116 19541552.898 -4924565.971 10 0 56303 18000.00000 0 15952095.270 19813413.685 -1760002.438 10 0 56303 18900.00000 0 16054569.109 19756177.789 1438792.345 10 0 56303 19800.00000 0 15886477.748 19403466.887 4609598.388 10 0 56303 20700.00000 0 15414369.375 18798399.945 7690739.921 10 0 56303 21600.00000 0 14615579.181 17991626.649 10622291.827 10 0 56303 22500.00000 0 13479411.628 17039060.568 13347251.031 10 0 56303 23400.00000 0 12007828.170 15999408.703 15812649.270 10 0 56303 24300.00000 0 10215610.526 14931602.544 17970585.165 10 0 56303 25200.00000 0 8129991.855 13892239.653 19779155.320 10 0 56303 26100.00000 0 5789770.667 12933144.030 21203266.371 10 0 56303 27000.00000 0 3243944.045 12099148.121 22215312.608 10 0 56303 27900.00000 0 549916.687 11426189.594 22795706.581 10 0 56303 28800.00000 0 -2228639.907 10939802.476 22933253.004 10 0 56303 29700.00000 0 -5024189.601 10654065.392 22625359.481 10 0 56303 30600.00000 0 -7767895.843 10571050.267 21878080.566 10 0 56303 31500.00000 0 -10392242.070 10680793.838 20705994.845 10 0 56303 32400.00000 0 -12833600.317 10961792.338 19131917.761 10 0 56303 33300.00000 0 -15034642.287 11381997.882 17186455.870 10 0 56303 34200.00000 0 -16946493.610 11900274.078 14907411.214 10 0 56303 35100.00000 0 -18530542.823 12468249.231 12339047.166 10 0 56303 36000.00000 0 -19759830.842 13032488.823 9531229.761 10 0 56303 36900.00000 0 -20619964.059 13536895.577 6538460.984 10 0 56303 37800.00000 0 -21109514.062 13925235.799 3418822.533 10 0 56303 38700.00000 0 -21239888.310 14143685.340 232850.379 10 0 56303 39600.00000 0 -21034678.117 14143287.584 -2957638.021 10 0 56303 40500.00000 0 -20528512.193 13882219.556 -6090741.155 10 0 56303 41400.00000 0 -19765464.565 13327770.153 -9105672.289 10 0 56303 42300.00000 0 -18797084.341 12457946.648 -11943936.367 10 0 56303 43200.00000 0 -17680130.499 11262641.093 -14550462.212 10 0 56303 44100.00000 0 -16474107.118 9744306.679 -16874668.271 10 0 56303 45000.00000 0 -15238702.628 7918114.628 -18871441.341 10 0 56303 45900.00000 0 -14031240.556 5811583.757 -20502009.727 10 0 56303 46800.00000 0 -12904248.510 3463696.812 -21734694.230 10 0 56303 47700.00000 0 -11903247.153 923539.023 -22545522.764 10 0 56303 48600.00000 0 -11064851.565 -1751485.928 -22918696.964 10 0 56303 49500.00000 0 -10415264.321 -4497789.824 -22846901.911 10 0 56303 50400.00000 0 -9969223.315 -7247996.335 -22331452.879 10 0 56303 51300.00000 0 -9729448.340 -9933501.675 -21382276.004 10 0 56303 52200.00000 0 -9686609.687 -12487094.249 -20017722.754 10 0 56303 53100.00000 0 -9819820.212 -14845525.154 -18264221.116 10 0 56303 54000.00000 0 -10097630.363 -16951923.328 -16155769.522 10 0 56303 54900.00000 0 -10479484.469 -18757955.150 -13733282.473 10 0 56303 55800.00000 0 -10917577.017 -20225638.629 -11043799.924 10 0 56303 56700.00000 0 -11359030.570 -21328736.504 -8139575.229 10 0 56303 57600.00000 0 -11748303.058 -22053670.066 -5077059.066 10 0 56303 58500.00000 0 -12029722.203 -22399915.449 -1915799.180 10 0 56303 59400.00000 0 -12150039.106 -22379866.000 1282722.319 10 0 56303 60300.00000 0 -12060891.977 -22018166.931 4456290.960 10 0 56303 61200.00000 0 -11721074.649 -21350550.790 7543176.919 10 0 56303 62100.00000 0 -11098512.694 -20422223.582 10483342.509 10 0 56303 63000.00000 0 -10171862.387 -19285870.420 13219615.847 10 0 56303 63900.00000 0 -8931663.865 -17999365.630 15698807.029 10 0 56303 64800.00000 0 -7380998.795 -16623284.707 17872744.668 10 0 56303 65700.00000 0 -5535623.901 -15218323.516 19699212.415 10 0 56303 66600.00000 0 -3423573.975 -13842733.878 21142767.275 10 0 56303 67500.00000 0 -1084250.281 -12549883.492 22175424.181 10 0 56303 68400.00000 0 1432968.161 -11386042.544 22777194.094 10 0 56303 69300.00000 0 4070532.982 -10388489.464 22936465.808 10 0 56303 70200.00000 0 6764879.767 -9584014.537 22650224.778 10 0 56303 71100.00000 0 9448837.325 -8987883.145 21924105.381 10 0 56303 72000.00000 0 12054193.274 -8603301.032 20772276.095 10 0 56303 72900.00000 0 14514310.107 -8421402.902 19217160.191 10 0 56303 73800.00000 0 16766683.818 -8421763.698 17288997.503 10 0 56303 74700.00000 0 18755339.467 -8573410.121 15025255.774 10 0 56303 75600.00000 0 20432964.950 -8836289.028 12469902.877 10 0 56303 76500.00000 0 21762694.996 -9163130.238 9672553.763 10 0 56303 77400.00000 0 22719471.873 -9501624.782 6687508.529 10 0 56303 78300.00000 0 23290926.872 -9796826.356 3572700.032 10 0 56303 79200.00000 0 23477746.600 -9993674.372 388571.300 10 0 56303 80100.00000 0 23293509.476 -10039531.833 -2803095.467 10 0 56303 81000.00000 0 22764000.050 -9886630.609 -5940375.630 10 0 56303 81900.00000 0 21926030.464 -9494320.505 -8962401.387 10 0 56303 82800.00000 0 20825818.994 -8831026.788 -11810540.222 10 0 56303 83700.00000 0 19516994.055 -7875833.025 -14429529.765 10 0 56303 84600.00000 0 18058307.571 -6619621.724 -16768547.220 10 0 56303 85500.00000 0 16511153.669 -5065723.905 -18782192.762 10 0 56304 0.00000 0 14936996.541 -3230049.132 -20431368.179 10 0 56304 900.00000 0 13394815.078 -1140688.759 -21684034.257 10 0 56304 1800.00000 0 11938670.523 1162991.367 -22515832.133 10 0 56304 2700.00000 0 10615499.386 3631734.183 -22910557.406 10 0 56304 3600.00000 0 9463222.343 6208193.149 -22860477.622 10 0 56304 4500.00000 0 8509248.781 8829079.775 -22366487.014 10 0 56304 5400.00000 0 7769438.752 11427568.763 -21438095.254 10 0 56304 6300.00000 0 7247565.622 13935862.058 -20093249.946 10 0 56304 7200.00000 0 6935301.737 16287806.039 -18357995.652 10 0 56304 8100.00000 0 6812727.563 18421453.661 -16265975.271 10 0 56304 9000.00000 0 6849342.740 20281465.244 -13857782.660 10 0 56304 9900.00000 0 7005536.374 21821247.841 -11180178.367 10 0 56304 10800.00000 0 7234454.317 23004743.871 -8285183.148 10 0 56304 11700.00000 0 7484184.219 23807794.003 -5229066.597 10 0 56304 12600.00000 0 7700165.442 24219017.039 -2071250.587 10 0 56304 13500.00000 0 7827721.108 24240169.784 1126850.828 10 0 56304 14400.00000 0 7814604.138 23885971.868 4303031.954 10 0 56304 15300.00000 0 7613448.388 23183403.117 7395512.227 10 0 56304 16200.00000 0 7184019.906 22170503.516 10344144.668 10 0 56304 17100.00000 0 6495171.833 20894726.884 13091591.740 10 0 56304 18000.00000 0 5526419.104 19410918.300 15584444.858 10 0 56304 18900.00000 0 4269065.377 17779001.120 17774265.347 10 0 56304 19800.00000 0 2726833.627 16061471.502 19618526.354 10 0 56304 20700.00000 0 915973.032 14320806.234 21081437.388 10 0 56304 21600.00000 0 -1135163.153 12616892.854 22134635.829 10 0 56304 22500.00000 0 -3387051.785 11004589.791 22757732.488 10 0 56304 23400.00000 0 -5790407.596 9531518.324 22938701.268 10 0 56304 24300.00000 0 -8288006.432 8236178.097 22674106.075 10 0 56304 25200.00000 0 -10816848.579 7146464.023 21969161.231 10 0 56304 26100.00000 0 -13310572.682 6278645.471 20837624.733 10 0 56304 27000.00000 0 -15702020.467 5636849.092 19301526.817 10 0 56304 27900.00000 0 -17925846.298 5213065.577 17390739.233 10 0 56304 28800.00000 0 -19921063.573 4987678.729 15142393.634 10 0 56304 29700.00000 0 -21633422.707 4930493.424 12600160.223 10 0 56304 30600.00000 0 -23017522.329 5002218.189 9813400.402 10 0 56304 31500.00000 0 -24038566.237 5156339.139 6836209.712 10 0 56304 32400.00000 0 -24673693.459 5341305.620 3726369.382 10 0 56304 33300.00000 0 -24912826.410 5502934.811 544226.653 10 0 56304 34200.00000 0 -24759002.184 5586933.375 -2648474.381 10 0 56304 35100.00000 0 -24228173.629 5541429.273 -5789788.792 10 0 56304 36000.00000 0 -23348488.935 5319406.446 -8818770.508 10 0 56304 36900.00000 0 -22159080.262 4880939.134 -11676652.286 10 0 56304 37800.00000 0 -20708412.396 4195131.045 -14307983.190 10 0 56304 38700.00000 0 -19052260.698 3241676.913 -16661701.655 10 0 56304 39600.00000 0 -17251403.017 2011979.901 -18692123.467 10 0 56304 40500.00000 0 -15369121.954 509776.801 -20359825.883 10 0 56304 41400.00000 0 -13468621.614 -1248756.498 -21632411.125 10 0 56304 42300.00000 0 -11610466.398 -3235425.057 -22485134.745 10 0 56304 43200.00000 0 -9850148.277 -5410944.501 -22901387.032 10 0 56304 44100.00000 0 -8235883.532 -7726343.062 -22873018.282 10 0 56304 45000.00000 0 -6806730.419 -10124779.115 -22400501.541 10 0 56304 45900.00000 0 -5591105.775 -12543700.080 -21492929.494 10 0 56304 46800.00000 0 -4605762.038 -14917254.103 -20167845.009 10 0 56304 47700.00000 0 -3855267.058 -17178855.135 -18450908.020 10 0 56304 48600.00000 0 -3332008.054 -19263795.337 -16375404.442 10 0 56304 49500.00000 0 -3016719.165 -21111796.375 -13981605.812 10 0 56304 50400.00000 0 -2879510.070 -22669393.222 -11315991.412 10 0 56304 51300.00000 0 -2881351.921 -23892050.734 -8430347.429 10 0 56304 52200.00000 0 -2975957.381 -24745924.183 -5380760.296 10 0 56304 53100.00000 0 -3111974.721 -25209189.501 -2226523.867 10 0 56304 54000.00000 0 -3235402.360 -25272887.093 971018.064 10 0 56304 54900.00000 0 -3292120.682 -24941243.494 4149670.861 10 0 56304 55800.00000 0 -3230432.819 -24231457.219 7247605.551 10 0 56304 56700.00000 0 -3003505.613 -23172957.944 10204568.261 10 0 56304 57600.00000 0 -2571606.191 -21806170.456 12963058.215 10 0 56304 58500.00000 0 -1904038.348 -20180835.861 15469450.541 10 0 56304 59400.00000 0 -980695.796 -18353961.146 17675041.576 10 0 56304 60300.00000 0 206834.288 -16387483.772 19536996.095 10 0 56304 61200.00000 0 1654664.817 -14345749.756 21019178.009 10 0 56304 62100.00000 0 3346525.695 -12292911.205 22092848.738 10 0 56304 63000.00000 0 5254208.343 -10290352.200 22737220.214 10 0 56304 63900.00000 0 7338519.764 -8394250.437 22939852.364 10 0 56304 64800.00000 0 9550706.904 -6653375.849 22696888.109 10 0 56304 65700.00000 0 11834292.408 -5107217.168 22013121.954 10 0 56304 66600.00000 0 14127245.740 -3784513.531 20901901.352 10 0 56304 67500.00000 0 16364399.757 -2702250.998 19384863.149 10 0 56304 68400.00000 0 18480012.664 -1865164.408 17491510.401 10 0 56304 69300.00000 0 20410369.121 -1265763.900 15258637.786 10 0 56304 70200.00000 0 22096312.652 -884883.454 12729616.680 10 0 56304 71100.00000 0 23485604.285 -692727.069 9953553.488 10 0 56304 72000.00000 0 24535009.412 -650367.407 6984337.431 10 0 56304 72900.00000 0 25212026.118 -711632.842 3879596.036 10 0 56304 73800.00000 0 25496183.134 -825302.517 699578.389 10 0 56304 74700.00000 0 25379853.336 -937516.232 -2494012.127 10 0 56304 75600.00000 0 24868549.082 -994296.846 -5639213.074 10 0 56304 76500.00000 0 23980687.124 -944078.269 -8675002.953 10 0 56304 77400.00000 0 22746833.112 -740131.851 -11542482.621 10 0 56304 78300.00000 0 21208457.345 -342788.313 -14186015.308 10 0 56304 79200.00000 0 19416253.758 278639.072 -16554303.253 10 0 56304 80100.00000 0 17428092.309 1144311.723 -18601380.239 10 0 56304 81000.00000 0 15306690.057 2262769.211 -20287501.154 10 0 56304 81900.00000 0 13117097.726 3630326.075 -21579911.687 10 0 56304 82800.00000 0 10924106.177 5230988.506 -22453483.546 10 0 56304 83700.00000 0 8789680.300 7036895.834 -22891203.224 10 0 56304 84600.00000 0 6770526.588 9009269.895 -22884505.007 10 0 56304 85500.00000 0 4915895.128 11099834.157 -22433441.698 10 0 56305 0.00000 0 3265706.904 13252644.905 -21546689.598 10 0 56305 900.00000 0 1849083.928 15406259.687 -20241386.969 10 0 56305 1800.00000 0 683342.579 17496153.323 -18542808.938 10 0 56305 2700.00000 0 -226507.428 19457281.923 -16483883.774 10 0 56305 3600.00000 0 -887739.255 21226688.402 -14104559.604 10 0 56305 4500.00000 0 -1319360.851 22746040.552 -11451032.933 10 0 56305 5400.00000 0 -1551066.689 23963995.602 -8574853.432 10 0 56305 6300.00000 0 -1621733.981 24838291.778 -5531922.050 10 0 56305 7200.00000 0 -1577527.564 25337478.595 -2381401.947 10 0 56305 8100.00000 0 -1469694.405 25442212.659 815436.310 10 0 56305 9000.00000 0 -1352142.040 25146063.949 3996412.301 10 0 56305 9900.00000 0 -1278904.512 24455798.209 7099651.937 10 0 56305 10800.00000 0 -1301604.329 23391123.345 10064797.762 10 0 56305 11700.00000 0 -1467019.117 21983910.393 12834189.017 10 0 56305 12600.00000 0 -1814857.069 20276921.979 15353987.663 10 0 56305 13500.00000 0 -2375836.393 18322101.969 17575227.977 10 0 56305 14400.00000 0 -3170150.819 16178498.412 19454769.035 10 0 56305 15300.00000 0 -4206386.729 13909907.215 20956131.526 10 0 56305 16200.00000 0 -5480938.210 11582335.420 22050202.948 10 0 56305 17100.00000 0 -6977945.265 9261390.106 22715797.979 10 0 56305 18000.00000 0 -8669758.285 7009701.805 22940063.767 10 0 56305 18900.00000 0 -10517909.797 4884489.353 22718722.962 10 0 56305 19800.00000 0 -12474553.375 2935366.840 22056150.435 10 0 56305 20700.00000 0 -14484309.946 1202483.020 20965282.725 10 0 56305 21600.00000 0 -16486444.934 -284930.660 19467362.378 10 0 56305 22500.00000 0 -18417285.833 -1509544.412 17591522.297 10 0 56305 23400.00000 0 -20212779.724 -2466407.290 15374218.250 10 0 56305 24300.00000 0 -21811084.425 -3162898.955 12858520.414 10 0 56305 25200.00000 0 -23155085.477 -3618159.625 10093277.496 10 0 56305 26100.00000 0 -24194734.041 -3862023.544 7132169.462 10 0 56305 27000.00000 0 -24889108.252 -3933502.067 4032667.046 10 0 56305 27900.00000 0 -25208111.922 -3878881.298 854918.046 10 0 56305 28800.00000 0 -25133739.577 -3749515.284 -2339418.019 10 0 56305 29700.00000 0 -24660854.873 -3599408.552 -5488364.277 10 0 56305 30600.00000 0 -23797449.729 -3482690.588 -8530826.812 10 0 56305 31500.00000 0 -22564373.210 -3451089.295 -11407777.477 10 0 56305 32400.00000 0 -20994541.331 -3551510.518 -14063396.398 10 0 56305 33300.00000 0 -19131660.519 -3823826.162 -16446152.135 10 0 56305 34200.00000 0 -17028517.807 -4298964.630 -18509798.704 10 0 56305 35100.00000 0 -14744908.647 -4997384.614 -20214270.493 10 0 56305 36000.00000 0 -12345288.256 -5927997.225 -21526458.084 10 0 56305 36900.00000 0 -9896243.754 -7087582.655 -22420850.267 10 0 56305 37800.00000 0 -7463891.640 -8460727.032 -22880030.147 10 0 56305 38700.00000 0 -5111308.117 -10020283.404 -22895015.894 10 0 56305 39600.00000 0 -2896098.447 -11728338.971 -22465439.484 10 0 56305 40500.00000 0 -868205.694 -13537649.557 -21599559.778 10 0 56305 41400.00000 0 931950.721 -15393482.772 -20314109.196 10 0 56305 42300.00000 0 2474929.691 -17235793.989 -18633976.343 10 0 56305 43200.00000 0 3743256.331 -19001645.168 -16591729.984 10 0 56305 44100.00000 0 4731902.466 -20627766.051 -14226992.779 10 0 56305 45000.00000 0 5448240.138 -22053150.731 -11585676.252 10 0 56305 45900.00000 0 5911470.770 -23221580.818 -8719091.260 10 0 56305 46800.00000 0 6151554.674 -24083969.002 -5682950.888 10 0 56305 47700.00000 0 6207686.783 -24600423.970 -2536285.173 10 0 56305 48600.00000 0 6126383.830 -24741949.194 659710.984 10 0 56305 49500.00000 0 5959264.828 -24491703.308 3842873.832 10 0 56305 50400.00000 0 5760619.827 -23845768.325 6951286.591 10 0 56305 51300.00000 0 5584871.027 -22813392.751 9924490.590 10 0 56305 52200.00000 0 5484034.923 -21416698.953 12704667.376 10 0 56305 53100.00000 0 5505293.988 -19689866.869 15237767.887 10 0 56305 54000.00000 0 5688781.681 -17677828.317 17474566.285 10 0 56305 54900.00000 0 6065675.258 -15434526.752 19371617.645 10 0 56305 55800.00000 0 6656677.628 -13020815.548 20892100.816 10 0 56305 56700.00000 0 7470952.846 -10502082.848 22006530.403 10 0 56305 57600.00000 0 8505560.504 -7945702.119 22693324.496 10 0 56305 58500.00000 0 9745413.133 -5418414.653 22939217.738 10 0 56305 59400.00000 0 11163758.741 -2983752.605 22739512.427 10 0 56305 60300.00000 0 12723168.531 -699609.086 22098163.391 10 0 56305 61200.00000 0 14376988.719 1383944.443 21027695.572 10 0 56305 62100.00000 0 16071196.023 3226503.932 19548956.279 10 0 56305 63000.00000 0 17746579.557 4798766.258 17690707.133 10 0 56305 63900.00000 0 19341158.166 6083492.276 15489063.676 10 0 56305 64800.00000 0 20792732.463 7075960.891 12986793.410 10 0 56305 65700.00000 0 22041465.061 7783896.865 10232485.698 10 0 56305 66600.00000 0 23032381.176 8226876.886 7279609.434 10 0 56305 67500.00000 0 23717685.062 8435240.291 4185476.580 10 0 56305 68400.00000 0 24058795.238 8448551.490 1010131.490 10 0 56305 69300.00000 0 24028013.149 8313679.826 -2184812.434 10 0 56305 70200.00000 0 23609755.184 8082578.641 -5337366.236 10 0 56305 71100.00000 0 22801296.129 7809857.882 -8386365.927 10 0 56305 72000.00000 0 21612992.609 7550253.146 -11272656.641 10 0 56305 72900.00000 0 20067976.734 7356098.351 -13940237.571 10 0 56305 73800.00000 0 18201332.225 7274908.990 -16337345.626 10 0 56305 74700.00000 0 16058786.944 7347178.153 -18417456.911 10 0 56305 75600.00000 0 13694975.697 7604478.543 -20140187.002 10 0 56305 76500.00000 0 11171344.983 8067950.880 -21472072.924 10 0 56305 77400.00000 0 8553786.224 8747242.787 -22387221.952 10 0 56305 78300.00000 0 5910095.026 9639943.613 -22867815.055 10 0 56305 79200.00000 0 3307361.232 10731539.813 -22904455.350 10 0 56305 80100.00000 0 809397.395 11995893.917 -22496354.813 10 0 56305 81000.00000 0 -1525688.348 13396228.206 -21651355.425 10 0 56305 81900.00000 0 -3647674.932 14886573.166 -20385783.886 10 0 56305 82800.00000 0 -5516076.393 16413621.192 -18724142.112 10 0 56305 83700.00000 0 -7101579.025 17918908.864 -16698638.743 10 0 56305 84600.00000 0 -8387008.326 19341237.111 -14348569.957 10 0 56305 85500.00000 0 -9367785.865 20619228.101 -11719560.901 10 0 56306 0.00000 0 -10051857.606 21693911.654 -8862681.924 10 0 56306 900.00000 0 -10459097.311 22511232.013 -5833456.045 10 0 56306 1800.00000 0 -10620211.027 23024369.612 -2690777.891 10 0 56306 2700.00000 0 -10575189.334 23195778.091 504235.902 10 0 56306 3600.00000 0 -10371374.137 22998851.313 3689441.033 10 0 56306 4500.00000 0 -10061222.365 22419148.120 6802880.947 10 0 56306 5400.00000 0 -9699862.523 21455122.888 9783998.770 10 0 56306 6300.00000 0 -9342548.541 20118330.200 12574821.373 10 0 56306 7200.00000 0 -9042119.778 18433094.552 15121091.661 10 0 56306 8100.00000 0 -8846575.583 16435658.560 17373326.566 10 0 56306 9000.00000 0 -8796867.751 14172845.185 19287779.868 10 0 56306 9900.00000 0 -8925004.724 11700289.971 20827291.055 10 0 56306 10800.00000 0 -9252547.932 9080317.128 21962004.006 10 0 56306 11700.00000 0 -9789563.908 6379548.001 22669942.020 10 0 56306 12600.00000 0 -10534076.366 3666341.491 22937428.612 10 0 56306 13500.00000 0 -11472041.357 1008172.545 22759346.612 10 0 56306 14400.00000 0 -12577846.541 -1530942.857 22139231.169 10 0 56306 15300.00000 0 -13815313.663 -3892869.961 21089195.430 10 0 56306 16200.00000 0 -15139162.265 -6027525.142 19629690.716 10 0 56306 17100.00000 0 -16496873.414 -7894704.562 17789106.065 10 0 56306 18000.00000 0 -17830875.492 -9465496.825 15603214.987 10 0 56306 18900.00000 0 -19080960.605 -10723222.386 13114480.070 10 0 56306 19800.00000 0 -20186830.513 -11663862.103 10371228.721 10 0 56306 20700.00000 0 -21090665.409 -12295958.569 7426715.879 10 0 56306 21600.00000 0 -21739607.840 -12639995.847 4338091.665 10 0 56306 22500.00000 0 -22088057.508 -12727285.019 1165293.821 10 0 56306 23400.00000 0 -22099680.457 -12598403.487 -2030113.586 10 0 56306 24300.00000 0 -21749048.050 -12301254.735 -5186132.723 10 0 56306 25200.00000 0 -21022836.583 -11888831.002 -8241532.680 10 0 56306 26100.00000 0 -19920536.715 -11416773.757 -11137034.943 10 0 56306 27000.00000 0 -18454642.401 -10940835.251 -13816460.702 10 0 56306 27900.00000 0 -16650310.674 -10514348.420 -16227817.929 10 0 56306 28800.00000 0 -14544505.772 -10185811.985 -18324307.260 10 0 56306 29700.00000 0 -12184662.442 -9996692.620 -20065227.530 10 0 56306 30600.00000 0 -9626923.178 -9979536.905 -21416763.801 10 0 56306 31500.00000 0 -6934021.889 -10156472.743 -22352642.911 10 0 56306 32400.00000 0 -4172900.916 -10538163.624 -22854644.198 10 0 56306 33300.00000 0 -1412159.371 -11123260.242 -22912955.672 10 0 56306 34200.00000 0 1280562.164 -11898373.196 -22526368.730 10 0 56306 35100.00000 0 3841153.004 -12838568.801 -21702307.432 10 0 56306 36000.00000 0 6211453.851 -13908368.189 -20456691.331 10 0 56306 36900.00000 0 8341428.501 -15063208.733 -18813633.887 10 0 56306 37800.00000 0 10190996.078 -16251307.364 -16804981.586 10 0 56306 38700.00000 0 11731448.073 -17415848.257 -14469701.858 10 0 56306 39600.00000 0 12946391.489 -18497403.398 -11853130.988 10 0 56306 40500.00000 0 13832179.197 -19436484.382 -9006096.029 10 0 56306 41400.00000 0 14397810.064 -20176117.861 -5983927.367 10 0 56306 42300.00000 0 14664303.611 -20664335.606 -2845381.161 10 0 56306 43200.00000 0 14663576.349 -20856473.472 348507.199 10 0 56306 44100.00000 0 14436867.990 -20717181.331 3535615.842 10 0 56306 45000.00000 0 14032784.992 -20222058.142 6653951.332 10 0 56306 45900.00000 0 13505045.134 -19358842.138 9642861.324 10 0 56306 46800.00000 0 12910019.621 -18128104.983 12444220.514 10 0 56306 47700.00000 0 12304177.646 -16543419.821 15003565.978 10 0 56306 48600.00000 0 11741542.429 -14630995.487 17271159.272 10 0 56306 49500.00000 0 11271266.951 -12428791.681 19202954.354 10 0 56306 50400.00000 0 10935432.317 -9985151.865 20761452.399 10 0 56306 51300.00000 0 10767161.912 -7357010.774 21916427.176 10 0 56306 52200.00000 0 10789130.921 -4607751.092 22645507.379 10 0 56306 53100.00000 0 11012533.856 -1804798.410 22934605.153 10 0 56306 54000.00000 0 11436553.297 982945.853 22778183.223 10 0 56306 54900.00000 0 12048351.847 3687727.421 22179356.076 10 0 56306 55800.00000 0 12823587.380 6245509.675 21149823.777 10 0 56306 56700.00000 0 13727429.637 8598385.900 19709640.125 10 0 56306 57600.00000 0 14716035.352 10696734.162 17886819.853 10 0 56306 58500.00000 0 15738419.841 12501026.414 15716792.562 10 0 56306 59400.00000 0 16738646.454 13983217.936 13241713.929 10 0 56306 60300.00000 0 17658241.953 15127660.683 10509647.316 10 0 56306 61200.00000 0 18438736.317 15931503.806 7573631.537 10 0 56306 62100.00000 0 19024220.215 16404566.043 4490652.641 10 0 56306 63000.00000 0 19363812.562 16568686.704 1320539.480 10 0 56306 63900.00000 0 19413934.184 16456583.599 -1875195.491 10 0 56306 64800.00000 0 19140291.712 16110266.995 -5034547.783 10 0 56306 65700.00000 0 18519487.886 15579077.117 -8096221.701 10 0 56306 66600.00000 0 17540190.058 14917428.449 -11000817.054 10 0 56306 67500.00000 0 16203807.157 14182356.276 -13691978.823 10 0 56306 68400.00000 0 14524645.873 13430969.041 -16117487.632 10 0 56306 69300.00000 0 12529538.604 12717913.951 -18230270.026 10 0 56306 70200.00000 0 10256957.634 12092962.503 -19989309.296 10 0 56306 71100.00000 0 7755651.324 11598817.493 -21360439.592 10 0 56306 72000.00000 0 5082857.988 11269233.697 -22317008.217 10 0 56306 72900.00000 0 2302170.531 11127531.253 -22840393.640 10 0 56306 73800.00000 0 -518860.698 11185564.323 -22920369.363 10 0 56306 74700.00000 0 -3311288.335 11443188.679 -22555306.579 10 0 56306 75600.00000 0 -6007386.566 11888250.996 -21752211.530 10 0 56306 76500.00000 0 -8543220.095 12497100.902 -20526596.392 10 0 56306 77400.00000 0 -10861057.538 13235604.938 -18902185.593 10 0 56306 78300.00000 0 -12911529.611 14060620.487 -16910462.519 10 0 56306 79200.00000 0 -14655442.803 14921868.290 -14590064.570 10 0 56306 80100.00000 0 -16065173.287 15764125.145 -11986037.607 10 0 56306 81000.00000 0 -17125583.219 16529644.614 -9148963.643 10 0 56306 81900.00000 0 -17834421.502 17160703.555 -6133978.321 10 0 56306 82800.00000 0 -18202192.578 17602166.604 -2999697.259 10 0 56306 83700.00000 0 -18251499.370 17803959.633 192927.657 10 0 56306 84600.00000 0 -18015888.763 17723346.755 3381799.349 10 0 56306 85500.00000 0 -17538249.081 17326913.622 6504889.956 99